KBIHKMMH

Guest
Details From KBIH - EASTERN SIERRA RGNL
To KMMH - Mammoth Yosemite
Flight Number -
Tags generated
Created
Modified
Stats Distance 27 nm / 50 km
Max Altitude 0 ft / 0 m
Waypoints 3
Social Downloads 1
Likes 0
Share VATSIM

Download

Looking for another format? Having issues loading an existing format? Contact us
Advertisement - Login to hide

Notes

Basic altitude profile: - Ascent Rate: 2500ft/min - Ascent Speed: 250kts - Cruise Altitude: 35000ft - Cruise Speed: 420kts - Descent Rate: 1500ft/min - Descent Speed: 250kts Options: - Use NATs: yes - Use PACOTS: yes - Use low airways: yes - Use high airways: yes

Route

KBIH BIH KMMH

ID Type Via Altitude Latitude Longitude Leg Dist Tot Dist Heading (true) Name
O KBIH APT - 0 ft / 0 m 37.37314˚ -118.36353˚ - 0 nm - EASTERN SIERRA RGNL
BIH VOR - 0 ft / 0 m 37.37694˚ -118.36653˚ 0 nm 0 nm 328° / 328° BISHOP VOR-DME
O KMMH APT - 0 ft / 0 m 37.62405˚ -118.83874˚ 26 nm 27 nm 304° / 303° Mammoth Yosemite

Altitude Profile

Advertisement - Login to hide

KBIH

Details ICAO KBIH
Name EASTERN SIERRA RGNL
Region United States
Timezone America/Los_Angeles (UTC-7.0)
Stats Elevation 4,124 ft / 1,257 m (AMSL)
Location 37.373143° -118.363525°
Runways 3
Magnetic Variation 12.633° E

METAR

KBIH 212356Z AUTO 03003KT 10SM -RA OVC075 16/08 A2989 RMK AO2 RAB2259E09B53 SLP092 P0000 60002 T01560078 10172 20133 58002

Decode

TAF

TAF KBIH 212320Z 2200/2224 16010G16KT P6SM VCTS BKN050CB OVC080 FM220300 34008KT P6SM SCT100 BKN150 FM222000 14007G14KT P6SM SCT100

Decode

Departure Runways

ID Width Length Bearing (true) Bearing (mag) Surface Threshold Offset Overrun Length
07 100 ft / 30 m 5,554 ft / 1,693 m 90.49° 77.86° Asphalt 0 ft / 0 m 0 ft / 0 m
12 100 ft / 30 m 7,497 ft / 2,285 m 135.61° 122.98° Asphalt 0 ft / 0 m 0 ft / 0 m
16 100 ft / 30 m 5,611 ft / 1,710 m 180.49° 167.86° Asphalt 0 ft / 0 m 0 ft / 0 m
25 100 ft / 30 m 5,554 ft / 1,693 m 270.51° 257.88° Asphalt 0 ft / 0 m 0 ft / 0 m
30 100 ft / 30 m 7,497 ft / 2,285 m 315.62° 302.99° Asphalt 0 ft / 0 m 0 ft / 0 m
34 100 ft / 30 m 5,611 ft / 1,710 m 0.49° 347.86° Asphalt 0 ft / 0 m 0 ft / 0 m

KMMH

Details ICAO KMMH (MMH)
Name Mammoth Yosemite
Region United States
Timezone America/Los_Angeles (UTC-7.0)
Stats Elevation 7,128 ft / 2,173 m (AMSL)
Location 37.624049° -118.838737°
Runways 1
Magnetic Variation 12.782° E

METAR

KMMH 220035Z AUTO 29008KT 7SM -RA BKN033 OVC044 08/06 A2999 RMK AO2 T00800056

Decode

TAF

TAF KMMH 212339Z 2200/2224 10005KT P6SM -SHRA SCT030 BKN045 FM220200 VRB05KT 5SM -RA BR BKN030 BKN070 FM220500 VRB03KT P6SM SCT070 BKN110 FM221800 11007KT P6SM FEW050

Decode

Destination Runways

ID Width Length Bearing (true) Bearing (mag) Surface Threshold Offset Overrun Length
09 98 ft / 30 m 6,987 ft / 2,130 m 109.02° 96.24° Asphalt 0 ft / 0 m 2,999 ft / 914 m
27 98 ft / 30 m 6,987 ft / 2,130 m 289.03° 276.25° Asphalt 0 ft / 0 m 0 ft / 0 m